Time,TemperatureF,DewpointF,PressureIn,WindDirection,WindDirectionDegrees,WindSpeedMPH,WindSpeedGustMPH,Humidity,HourlyPrecipIn,Conditions,Clouds,dailyrainin,SoftwareType,DateUTC
2015-08-29 00:04:00,68.0,61.0,29.98,SE,135,0.0,0.0,79,-99.99,,,-99.99,,2015-08-29 04:04:00,
2015-08-29 00:13:00,68.0,61.0,29.98,SSE,158,0.0,0.0,79,-99.99,,,-99.99,,2015-08-29 04:13:00,
2015-08-29 00:23:00,68.0,61.0,29.98,East,90,0.0,0.0,79,-99.99,,,-99.99,,2015-08-29 04:23:00,
2015-08-29 00:33:00,68.0,62.0,29.98,SE,135,0.0,0.0,80,-99.99,,,-99.99,,2015-08-29 04:33:00,
2015-08-29 00:44:00,67.0,61.0,29.98,WSW,248,0.0,0.0,80,-99.99,,,-99.99,,2015-08-29 04:44:00,
2015-08-29 00:53:00,67.0,61.0,29.98,SE,135,0.0,0.0,80,-99.99,,,-99.99,,2015-08-29 04:53:00,
2015-08-29 01:04:00,67.0,61.0,29.98,SW,225,0.0,0.0,81,-99.99,,,-99.99,,2015-08-29 05:04:00,
2015-08-29 01:13:00,67.0,61.0,29.99,SE,135,0.0,0.0,81,-99.99,,,-99.99,,2015-08-29 05:13:00,
2015-08-29 01:24:00,67.0,61.0,29.99,SE,135,0.0,0.0,81,-99.99,,,-99.99,,2015-08-29 05:24:00,
2015-08-29 01:34:00,67.0,61.0,29.99,SE,135,0.0,0.0,81,-99.99,,,-99.99,,2015-08-29 05:34:00,
2015-08-29 01:44:00,67.0,61.0,29.99,SE,135,0.0,0.0,82,-99.99,,,-99.99,,2015-08-29 05:44:00,
2015-08-29 01:53:00,67.0,61.0,29.98,ESE,112,0.0,0.0,82,-99.99,,,-99.99,,2015-08-29 05:53:00,
2015-08-29 02:04:00,67.0,61.0,29.98,South,180,0.0,0.0,82,-99.99,,,-99.99,,2015-08-29 06:04:00,
2015-08-29 02:13:00,67.0,61.0,29.98,SE,135,0.0,0.0,82,-99.99,,,-99.99,,2015-08-29 06:13:00,
2015-08-29 02:24:00,67.0,62.0,29.98,SW,225,0.0,0.0,83,-99.99,,,-99.99,,2015-08-29 06:24:00,
2015-08-29 02:34:00,66.0,61.0,29.98,SE,135,0.0,0.0,83,-99.99,,,-99.99,,2015-08-29 06:34:00,
2015-08-29 02:44:00,66.0,61.0,29.98,NW,315,0.0,0.0,83,-99.99,,,-99.99,,2015-08-29 06:44:00,
2015-08-29 02:53:00,66.0,61.0,29.99,WSW,248,0.0,0.0,83,-99.99,,,-99.99,,2015-08-29 06:53:00,
2015-08-29 03:03:00,66.0,61.0,29.99,ESE,112,0.0,0.0,83,-99.99,,,-99.99,,2015-08-29 07:03:00,
2015-08-29 03:13:00,66.0,61.0,29.98,SE,135,0.0,0.0,83,-99.99,,,-99.99,,2015-08-29 07:13:00,
2015-08-29 03:23:00,66.0,61.0,29.98,SE,135,0.0,0.0,84,-99.99,,,-99.99,,2015-08-29 07:23:00,
2015-08-29 03:33:00,66.0,61.0,29.98,SE,135,0.0,0.0,84,-99.99,,,-99.99,,2015-08-29 07:33:00,
2015-08-29 03:43:00,66.0,61.0,29.98,East,90,0.0,0.0,84,-99.99,,,-99.99,,2015-08-29 07:43:00,
2015-08-29 04:03:00,66.0,61.0,29.98,ESE,112,0.0,0.0,84,-99.99,,,-99.99,,2015-08-29 08:03:00,
2015-08-29 04:13:00,66.0,61.0,29.98,NW,315,0.0,0.0,84,-99.99,,,-99.99,,2015-08-29 08:13:00,
2015-08-29 04:23:00,65.0,60.0,29.98,SSE,158,0.0,0.0,84,-99.99,,,-99.99,,2015-08-29 08:23:00,
2015-08-29 04:33:00,66.0,61.0,29.97,SSW,202,0.0,0.0,84,-99.99,,,-99.99,,2015-08-29 08:33:00,
2015-08-29 04:44:00,65.0,60.0,29.97,SSE,158,0.0,0.0,84,-99.99,,,-99.99,,2015-08-29 08:44:00,
2015-08-29 04:54:00,65.0,60.0,29.98,ESE,112,0.0,0.0,84,-99.99,,,-99.99,,2015-08-29 08:54:00,
2015-08-29 05:04:00,65.0,60.0,29.98,ESE,112,0.0,0.0,84,-99.99,,,-99.99,,2015-08-29 09:04:00,
2015-08-29 05:23:00,65.0,60.0,29.98,ESE,112,0.0,0.0,85,-99.99,,,-99.99,,2015-08-29 09:23:00,
2015-08-29 05:33:00,66.0,61.0,29.98,South,180,0.0,0.0,85,-99.99,,,-99.99,,2015-08-29 09:33:00,
2015-08-29 05:44:00,66.0,61.0,29.98,NNE,22,0.0,0.0,85,-99.99,,,-99.99,,2015-08-29 09:44:00,
2015-08-29 05:54:00,66.0,61.0,29.98,SSE,158,0.0,0.0,85,-99.99,,,-99.99,,2015-08-29 09:54:00,
2015-08-29 06:04:00,66.0,61.0,29.98,SSE,158,0.0,0.0,85,-99.99,,,-99.99,,2015-08-29 10:04:00,
2015-08-29 06:23:00,66.0,61.0,29.97,SE,135,0.0,0.0,85,-99.99,,,-99.99,,2015-08-29 10:23:00,
2015-08-29 06:33:00,65.0,60.0,29.98,ESE,112,0.0,0.0,85,-99.99,,,-99.99,,2015-08-29 10:33:00,
2015-08-29 06:44:00,65.0,60.0,29.98,SSE,158,0.0,0.0,85,-99.99,,,-99.99,,2015-08-29 10:44:00,
2015-08-29 06:54:00,65.0,60.0,29.98,ENE,68,0.0,0.0,85,-99.99,,,-99.99,,2015-08-29 10:54:00,
2015-08-29 07:04:00,65.0,60.0,29.98,South,180,0.0,0.0,85,-99.99,,,-99.99,,2015-08-29 11:04:00,
2015-08-29 07:13:00,65.0,60.0,29.98,ESE,112,0.0,0.0,85,-99.99,,,-99.99,,2015-08-29 11:13:00,
2015-08-29 07:24:00,65.0,60.0,29.98,ENE,68,0.0,0.0,85,-99.99,,,-99.99,,2015-08-29 11:24:00,
2015-08-29 07:34:00,65.0,61.0,29.98,SE,135,0.0,0.0,86,-99.99,,,-99.99,,2015-08-29 11:34:00,
2015-08-29 07:44:00,65.0,61.0,29.98,South,180,0.0,0.0,86,-99.99,,,-99.99,,2015-08-29 11:44:00,
2015-08-29 07:54:00,65.0,61.0,29.99,WSW,248,0.0,0.0,86,-99.99,,,-99.99,,2015-08-29 11:54:00,
2015-08-29 08:03:00,66.0,62.0,29.99,SW,225,0.0,0.0,86,-99.99,,,-99.99,,2015-08-29 12:03:00,
2015-08-29 08:23:00,66.0,62.0,30.01,SW,225,0.0,0.0,86,-99.99,,,-99.99,,2015-08-29 12:23:00,
2015-08-29 08:34:00,67.0,63.0,30.01,SSW,202,0.0,0.0,86,-99.99,,,-99.99,,2015-08-29 12:34:00,
2015-08-29 08:44:00,68.0,64.0,30.01,SSE,158,0.0,0.0,86,-99.99,,,-99.99,,2015-08-29 12:44:00,
2015-08-29 08:54:00,68.0,64.0,30.01,South,180,0.0,0.0,86,-99.99,,,-99.99,,2015-08-29 12:54:00,
2015-08-29 09:13:00,70.0,65.0,30.01,SW,225,0.0,0.0,85,-99.99,,,-99.99,,2015-08-29 13:13:00,
2015-08-29 09:24:00,70.0,65.0,30.01,WSW,248,0.0,0.0,84,-99.99,,,-99.99,,2015-08-29 13:24:00,
2015-08-29 09:34:00,71.0,66.0,30.00,SW,225,0.0,0.0,83,-99.99,,,-99.99,,2015-08-29 13:34:00,
2015-08-29 09:44:00,72.0,66.0,30.00,South,180,0.0,0.0,82,-99.99,,,-99.99,,2015-08-29 13:44:00,
2015-08-29 09:53:00,73.0,67.0,30.00,SW,225,0.0,0.0,81,-99.99,,,-99.99,,2015-08-29 13:53:00,
2015-08-29 10:03:00,73.0,66.0,30.00,East,90,0.0,1.0,80,-99.99,,,-99.99,,2015-08-29 14:03:00,
2015-08-29 10:13:00,74.0,67.0,30.00,SW,225,0.0,1.0,80,-99.99,,,-99.99,,2015-08-29 14:13:00,
2015-08-29 10:23:00,74.0,66.0,30.00,South,180,0.0,0.0,77,-99.99,,,-99.99,,2015-08-29 14:23:00,
2015-08-29 10:33:00,75.0,67.0,30.00,South,180,0.0,0.0,76,-99.99,,,-99.99,,2015-08-29 14:33:00,
2015-08-29 10:44:00,76.0,67.0,30.00,SE,135,0.0,1.0,74,-99.99,,,-99.99,,2015-08-29 14:44:00,
2015-08-29 10:53:00,76.0,67.0,30.01,NW,315,0.0,0.0,73,-99.99,,,-99.99,,2015-08-29 14:53:00,
2015-08-29 11:03:00,77.0,68.0,30.01,SE,135,0.0,0.0,73,-99.99,,,-99.99,,2015-08-29 15:03:00,
2015-08-29 11:13:00,78.0,68.0,30.00,WNW,292,0.0,1.0,72,-99.99,,,-99.99,,2015-08-29 15:13:00,
2015-08-29 11:23:00,78.0,68.0,30.00,South,180,0.0,1.0,71,-99.99,,,-99.99,,2015-08-29 15:23:00,
2015-08-29 11:34:00,79.0,68.0,30.00,West,270,0.0,0.0,70,-99.99,,,-99.99,,2015-08-29 15:34:00,
2015-08-29 11:44:00,79.0,68.0,30.00,NW,315,0.0,1.0,69,-99.99,,,-99.99,,2015-08-29 15:44:00,
2015-08-29 11:54:00,80.0,68.0,29.99,SSE,158,0.0,1.0,68,-99.99,,,-99.99,,2015-08-29 15:54:00,
2015-08-29 12:15:00,80.0,68.0,29.99,NE,45,0.0,1.0,67,-99.99,,,-99.99,,2015-08-29 16:15:00,
2015-08-29 12:24:00,80.0,68.0,29.99,NE,45,0.0,1.0,67,-99.99,,,-99.99,,2015-08-29 16:24:00,
2015-08-29 12:33:00,81.0,69.0,29.98,SSE,158,0.0,1.0,66,-99.99,,,-99.99,,2015-08-29 16:33:00,
2015-08-29 12:54:00,82.0,69.0,29.97,WSW,248,0.0,2.0,64,-99.99,,,-99.99,,2015-08-29 16:54:00,
2015-08-29 13:04:00,82.0,68.0,29.97,SE,135,0.0,0.0,63,-99.99,,,-99.99,,2015-08-29 17:04:00,
2015-08-29 13:13:00,82.0,68.0,29.97,NW,315,0.0,0.0,62,-99.99,,,-99.99,,2015-08-29 17:13:00,
2015-08-29 13:23:00,82.0,68.0,29.97,ESE,112,0.0,1.0,62,-99.99,,,-99.99,,2015-08-29 17:23:00,
2015-08-29 13:34:00,83.0,69.0,29.96,ENE,68,0.0,2.0,62,-99.99,,,-99.99,,2015-08-29 17:34:00,
2015-08-29 13:44:00,83.0,68.0,29.96,ESE,112,1.0,2.0,61,-99.99,,,-99.99,,2015-08-29 17:44:00,
2015-08-29 13:54:00,83.0,68.0,29.95,NW,315,0.0,1.0,61,-99.99,,,-99.99,,2015-08-29 17:54:00,
2015-08-29 14:04:00,83.0,68.0,29.95,South,180,0.0,1.0,60,-99.99,,,-99.99,,2015-08-29 18:04:00,
2015-08-29 14:13:00,84.0,69.0,29.94,South,180,1.0,1.0,60,-99.99,,,-99.99,,2015-08-29 18:13:00,
2015-08-29 14:24:00,84.0,68.0,29.94,South,180,0.0,0.0,59,-99.99,,,-99.99,,2015-08-29 18:24:00,
2015-08-29 14:34:00,84.0,68.0,29.93,SE,135,0.0,3.0,59,-99.99,,,-99.99,,2015-08-29 18:34:00,
2015-08-29 14:44:00,84.0,68.0,29.93,SSE,158,1.0,1.0,59,-99.99,,,-99.99,,2015-08-29 18:44:00,
2015-08-29 14:54:00,85.0,69.0,29.92,SSE,158,0.0,1.0,58,-99.99,,,-99.99,,2015-08-29 18:54:00,
2015-08-29 15:04:00,85.0,69.0,29.92,NNE,22,0.0,0.0,58,-99.99,,,-99.99,,2015-08-29 19:04:00,
2015-08-29 15:13:00,84.0,68.0,29.91,South,180,0.0,1.0,58,-99.99,,,-99.99,,2015-08-29 19:13:00,
2015-08-29 15:24:00,84.0,68.0,29.91,WSW,248,0.0,2.0,59,-99.99,,,-99.99,,2015-08-29 19:24:00,
2015-08-29 15:34:00,84.0,69.0,29.92,WSW,248,0.0,1.0,60,-99.99,,,-99.99,,2015-08-29 19:34:00,
2015-08-29 15:44:00,84.0,69.0,29.92,South,180,0.0,1.0,60,-99.99,,,-99.99,,2015-08-29 19:44:00,
2015-08-29 16:04:00,84.0,70.0,29.91,WNW,292,0.0,1.0,62,-99.99,,,-99.99,,2015-08-29 20:04:00,
2015-08-29 16:13:00,85.0,70.0,29.91,ENE,68,1.0,3.0,62,-99.99,,,-99.99,,2015-08-29 20:13:00,
2015-08-29 16:23:00,85.0,70.0,29.91,North,0,1.0,2.0,62,-99.99,,,-99.99,,2015-08-29 20:23:00,
2015-08-29 16:34:00,85.0,70.0,29.91,ESE,112,1.0,2.0,62,-99.99,,,-99.99,,2015-08-29 20:34:00,
2015-08-29 16:44:00,85.0,70.0,29.91,NE,45,0.0,2.0,62,-99.99,,,-99.99,,2015-08-29 20:44:00,
2015-08-29 16:53:00,84.0,70.0,29.91,SSE,158,0.0,2.0,62,-99.99,,,-99.99,,2015-08-29 20:53:00,
2015-08-29 17:03:00,84.0,70.0,29.91,NW,315,1.0,1.0,63,-99.99,,,-99.99,,2015-08-29 21:03:00,
2015-08-29 17:13:00,83.0,70.0,29.90,NNE,22,0.0,1.0,64,-99.99,,,-99.99,,2015-08-29 21:13:00,
2015-08-29 17:23:00,84.0,70.0,29.90,NE,45,1.0,1.0,64,-99.99,,,-99.99,,2015-08-29 21:23:00,
2015-08-29 17:34:00,83.0,70.0,29.89,West,270,1.0,3.0,64,-99.99,,,-99.99,,2015-08-29 21:34:00,
2015-08-29 17:44:00,83.0,70.0,29.89,ENE,68,1.0,2.0,64,-99.99,,,-99.99,,2015-08-29 21:44:00,
2015-08-29 17:56:00,82.0,69.0,29.89,West,270,0.0,2.0,66,-99.99,,,-99.99,,2015-08-29 21:56:00,
2015-08-29 18:05:00,82.0,69.0,29.89,SSE,158,0.0,-999.0,66,-99.99,,,-99.99,,2015-08-29 22:05:00,